Jaffrey, NH

5:48 AM EST on February 27, 2017 (GMT -0500)
Jaffrey Airport-Silver Ranch

Weather History for KAFN - November, 2011

Change the Weather History Date:

Tuesday, November 15, 2011

  Actual Average Record
Temperature  
Mean Temperature 52 °F -  
Max Temperature 59 °F 42 °F 66 °F (2008)
Min Temperature 42 °F 26 °F 10 °F (1996)
Degree Days  
Heating Degree Days 14    
Growing Degree Days 2 (Base 50)    
Moisture  
Dew Point 46 °F    
Average Humidity 75    
Maximum Humidity 92    
Minimum Humidity 55    
Precipitation  
Precipitation 0.01 in - - ()
Sea Level Pressure  
Sea Level Pressure 29.83 in    
Wind  
Wind Speed 6 mph (SW)    
Max Wind Speed 10 mph    
Max Gust Speed 21 mph    
Visibility 10 miles    
Events Rain    
Averages and records for this station are not official NWS values.
T = Trace of Precipitation, MM = Missing Value Source: NWS Daily Summary

Daily Weather History Graph

Daily Weather History Graph

Search for Another Location

Airport or City:

Trip Planner

Search our weather history database for the weather conditions in past years. The results will help you decide how hot, cold, wet, or windy it might be!

Date:

Astronomy

Nov. 15, 2011 Rise Set
Actual Time 6:39 AM EST 4:25 PM EST
Civil Twilight 6:09 AM EST 4:55 PM EST
Nautical Twilight 5:34 AM EST 5:29 PM EST
Astronomical Twilight 5:01 AM EST 6:03 PM EST
Moon 8:30 PM EST (11/15) 10:38 AM EST (11/15)
Length of Visible Light 10h 46m
Length of Day
9h 45m
Waning Gibbous, 79% of the Moon is Illuminated
Nov 15
Waning Gibbous
Nov 18
Last Quarter
Nov 25
New
Dec 2
First Quarter
Dec 10
Full

Hourly Weather History & Observations

Time (EST) Temp. Dew Point Humidity Pressure Visibility Wind Dir Wind Speed Gust Speed Precip Events Conditions
12:52 AM 55.9 °F 51.1 °F 84% 29.70 in 10.0 mi SW 9.2 mph 20.7 mph 0.00 in Rain Light Rain
1:52 AM 55.0 °F 51.1 °F 86% 29.71 in 10.0 mi SW 4.6 mph - 0.00 in   Overcast
2:52 AM 55.0 °F 51.1 °F 86% 29.69 in 10.0 mi SW 10.4 mph - N/A   Overcast
4:52 AM 57.0 °F 51.1 °F 81% 29.69 in 10.0 mi SW 10.4 mph 18.4 mph N/A   Overcast
5:52 AM 55.9 °F 50.0 °F 80% 29.67 in 10.0 mi SSW 5.8 mph - N/A   Partly Cloudy
8:52 AM 57.9 °F 50.0 °F 75% 29.75 in 10.0 mi WSW 5.8 mph - 0.00 in   Scattered Clouds
9:52 AM 59.0 °F 50.0 °F 72% 29.75 in 10.0 mi Variable 4.6 mph - 0.00 in Rain Light Rain
10:52 AM 57.0 °F 51.1 °F 81% 29.78 in 7.0 mi West 8.1 mph - 0.01 in Rain Light Rain
11:52 AM 59.0 °F 48.9 °F 69% 29.80 in 10.0 mi West 10.4 mph 16.1 mph 0.00 in   Partly Cloudy
12:52 PM 59.0 °F 46.9 °F 64% 29.80 in 10.0 mi West 10.4 mph 18.4 mph N/A   Overcast
1:52 PM 59.0 °F 43.0 °F 55% 29.82 in 10.0 mi Variable 6.9 mph - N/A   Mostly Cloudy
2:52 PM 57.9 °F 43.0 °F 58% 29.83 in 10.0 mi West 5.8 mph - N/A   Partly Cloudy
4:52 PM 55.0 °F 42.1 °F 62% 29.86 in 10.0 mi Calm Calm - N/A   Clear
5:52 PM 50.0 °F 42.1 °F 74% 29.90 in 10.0 mi Calm Calm - N/A   Clear
6:52 PM 48.0 °F 43.0 °F 83% 29.92 in 10.0 mi Calm Calm - N/A   Overcast
7:52 PM 52.0 °F 39.9 °F 63% 29.95 in 10.0 mi WSW 4.6 mph - N/A   Mostly Cloudy
8:52 PM 50.0 °F 41.0 °F 71% 29.97 in 10.0 mi SSW 3.5 mph - N/A   Overcast
9:52 PM 48.9 °F 41.0 °F 74% 29.96 in 10.0 mi South 4.6 mph - N/A   Mostly Cloudy
10:52 PM 44.1 °F 41.0 °F 89% 29.98 in 10.0 mi Calm Calm - N/A   Mostly Cloudy
11:52 PM 42.1 °F 39.9 °F 92% 29.98 in 10.0 mi Calm Calm - N/A   Mostly Cloudy